Starlink 33708

operational
NORAD ID: 63405 Int'l Des: 2025-065 Owner: SPXS Country: US Constellation: starlink
LEOCIRCULAR

Starlink 33708について

説明を読み込み中...

リアルタイム位置

3D地球を読み込み中...

次回通過

高度履歴

Altitude vs Time

uPlot chart will show altitude changes over time

軌道要素

1 63405U 25065G 25302.54128251 .00029155 00000-0 10640-2 0 9991
2 63405 42.9987 127.6359 0000744 264.0292 96.0475 15.27605210 32782
Epoch: Oct 29, 2025 • Age: 8 hours

現在のステータス

高度 482.4 km
速度 7.63 km/s
衛星直下点 17.89°N, 153.17°E
打ち上げ日 Mar 31, 2025
運用期間 0.5 years
タイプ internet

技術仕様

分類 Payload
質量 575.00 kg
乾燥質量 530.00 kg
総質量 575.00 kg
長さ 0.30 m
直径 4.10 m
スパン 29.00 m
形状 Box + pan
製造者 SPXS
バスタイプ Starlink V2MO
フェーズステータス In Orbit
所有者/国 SPXS/US

大規模コンステレーション

Loading constellations...